Regional Weather Roundup
Issued by NWS Albany, NY

Home | Current Version | Previous Version | Graphics & Text | Print | Product List | Glossary Off
Versions: 1 2 3 4 5 6 7 8 9 10 11 12 13 14 15 16 17 18 19 20 21 22 23 24 25 26 27 28 29 30 31 32 33 34 35 36 37 38 39 40 41 42 43 44 45 46 47 48 49 50

000
ASUS41 KALY 232010
RWRALY

NEW YORK STATE HOURLY WEATHER ROUNDUP
NATIONAL WEATHER SERVICE ALBANY NY
400 PM EDT SAT MAY 23 2015

NOTE: "FAIR" INDICATES FEW OR NO CLOUDS BELOW 12,000 FEET WITH NO
SIGNIFICANT WEATHER AND/OR NO OBSTRUCTIONS TO VISIBILITY.

NYZ032-033-038>043-046>054-057>066-NYZ062>081-232100-
EAST


CITY           SKY/WX    TMP DP  RH WIND       PRES   REMARKS
ALBANY         SUNNY     64  26  23 NW14      30.34F
GLENS FALLS    SUNNY     65  23  20 W13       30.28F
POUGHKEEPSIE   SUNNY     66  25  21 MISG      30.32F
NEWBURGH       SUNNY     64  32  29 W8        30.34F
MONTGOMERY     SUNNY     66  29  24 W8G17     30.33F
WHITE PLAINS   SUNNY     64  28  25 NW7       30.34F
ISLIP          SUNNY     65  25  22 NW13      30.35F
NEW YORK CITY  SUNNY     67  24  19 N7        30.35F
CENTRAL PARK   SUNNY     68  26  20 VRB6      30.38F
$$

NYZ005>009-017-018-044>046-055-056-232100-
CENTRAL


CITY           SKY/WX    TMP DP  RH WIND       PRES   REMARKS
FULTON         SUNNY     62  34  35 VRB7G17   30.36F
SYRACUSE       MOSUNNY   61  31  32 CALM      30.37F
ROME           SUNNY     59  29  31 W17       30.38F
ELMIRA         SUNNY     67  29  24 W7        30.34F
BINGHAMTON     SUNNY     60  30  32 W9        30.36F
MONTICELLO     SUNNY     61  27  27 W14       30.36F
$$

NYZ026>034-041>043-232100-
NORTH


CITY           SKY/WX    TMP DP  RH WIND       PRES   REMARKS
WATERTOWN      MOSUNNY   55  28  35 SW10G21   30.36F
FORT DRUM      NOT AVBL
MASSENA        MOSUNNY   59  30  33 SW17G30   30.29F
SARANAC LAKE   MOSUNNY   55  21  26 W14G22    30.26F
PLATTSBURGH    SUNNY     62  20  19 W8        30.25F
$$

NYZ001>004-010>016-019>021-232100-
WEST


CITY           SKY/WX    TMP DP  RH WIND       PRES   REMARKS
NIAGARA FALLS  MOSUNNY   62  28  27 SW16      30.36F
BUFFALO        MOSUNNY   61  26  26 SW20G28   30.38F
DUNKIRK        SUNNY     62  28  27 W14G22    30.40S
JAMESTOWN      SUNNY     63  30  29 W9        30.39S
WELLSVILLE     SUNNY     65  22  19 W9G23     30.37F
ROCHESTER      SUNNY     65  23  20 W9        30.35F
PENN YAN       SUNNY     66  26  22 VRB6      30.35F
$$

             KEY
       WCI = WIND CHILL INDEX
       VSB = VISIBILITY
       HX  = HEAT INDEX
$$


USA.gov is the U.S. government's official web portal to all federal, state and local government web resources and services.